CST,Max TemperatureF,Mean TemperatureF,Min TemperatureF,Max Dew PointF,MeanDew PointF,Min DewpointF,Max Humidity, Mean Humidity, Min Humidity, Max Sea Level PressureIn, Mean Sea Level PressureIn, Min Sea Level PressureIn, Max VisibilityMiles, Mean VisibilityMiles, Min VisibilityMiles, Max Wind SpeedMPH, Mean Wind SpeedMPH, Max Gust SpeedMPH,PrecipitationIn, CloudCover, Events, WindDirDegrees
2012-11-1,42,35,28,32,27,23,87,69,49,30.09,30.00,29.94,10,10,10,16,4,26,0.00,6,,340
2012-11-2,42,30,19,28,25,18,100,75,49,30.20,30.15,30.09,10,10,10,7,3,,0.00,2,,359
2012-11-3,41,36,32,30,28,27,81,73,61,30.26,30.23,30.20,10,10,10,7,3,,0.00,8,,88
2012-11-4,46,37,28,32,30,23,93,72,57,30.26,30.22,30.17,10,10,10,8,2,,0.00,6,,104
2012-11-5,42,38,33,34,30,28,81,73,65,30.23,30.16,29.96,10,10,10,10,6,17,0.00,8,,125
2012-11-6,42,38,35,37,36,34,100,89,70,29.99,29.85,29.77,10,8,2,15,10,25,0.22,8,Rain,267
2012-11-7,42,38,35,36,35,34,100,86,70,30.13,30.09,29.99,10,10,10,8,4,,0.00,7,,232
2012-11-8,53,42,32,36,33,30,100,80,51,30.08,30.01,29.94,10,10,10,15,7,20,0.00,0,,176
2012-11-9,50,41,32,37,35,30,100,80,62,30.09,30.04,29.98,10,10,10,13,5,21,0.00,3,,55
2012-11-10,64,53,42,55,46,37,100,88,73,29.97,29.70,29.50,10,6,1,22,13,29,0.14,6,Rain,116
2012-11-11,55,40,23,54,32,16,100,87,69,29.94,29.76,29.53,10,9,2,18,11,24,0.05,8,Rain-Snow,261
2012-11-12,28,24,19,19,16,12,86,72,59,30.30,30.06,29.94,10,10,5,21,13,26,0.00,7,Snow,260
2012-11-13,39,26,14,30,21,14,100,74,49,30.39,30.34,30.30,10,10,10,12,5,16,0.00,2,,173
2012-11-14,48,40,32,32,31,28,100,74,54,30.31,30.25,30.17,10,10,10,10,6,,0.00,3,,145
2012-11-15,51,37,23,34,27,12,100,64,44,30.48,30.28,30.15,10,10,10,12,5,18,0.00,3,,273
2012-11-16,42,28,15,28,20,12,87,70,39,30.52,30.45,30.36,10,10,10,9,2,,0.00,0,,135
2012-11-17,55,44,32,37,34,28,100,70,47,30.36,30.29,30.24,10,10,7,17,8,22,0.00,2,,143
2012-11-18,55,48,42,34,33,32,66,55,41,30.25,30.16,30.11,10,10,10,18,13,25,0.00,3,,154
2012-11-19,55,44,32,39,36,32,100,67,51,30.14,30.08,30.04,10,10,2,12,7,,0.00,5,Rain,149
2012-11-20,50,37,24,39,32,25,100,88,54,30.19,30.14,30.08,10,6,0,8,1,,0.00,3,Fog,152
2012-11-21,57,46,35,43,37,32,87,68,48,30.07,29.91,29.72,10,10,7,16,6,22,0.00,0,,154
2012-11-22,57,40,23,43,36,19,100,73,54,29.95,29.74,29.63,10,8,0,25,13,33,0.00,3,Snow,234
2012-11-23,26,20,15,19,17,12,86,77,68,30.36,30.23,29.96,10,9,3,23,16,32,0.00,7,Snow,312
2012-11-24,30,18,5,21,13,3,100,79,64,30.35,30.12,29.82,10,9,0,12,4,16,0.00,4,Snow,162
2012-11-25,30,28,26,25,22,16,86,77,64,30.15,29.97,29.81,10,10,10,15,6,20,0.00,8,Snow,286
2012-11-26,26,17,8,16,8,5,86,72,58,30.41,30.35,30.16,10,10,10,14,9,20,0.00,3,Snow,316
2012-11-27,32,23,14,23,18,12,100,76,64,30.29,30.18,30.11,10,10,10,10,5,,0.00,5,,182
2012-11-28,32,26,19,27,22,18,93,79,69,30.36,30.25,30.12,10,10,10,12,5,,0.00,5,,222
2012-11-29,37,28,19,28,25,18,100,84,65,30.16,30.12,30.09,10,10,5,10,4,17,0.00,0,,61
2012-11-30,33,32,30,32,29,27,100,89,80,30.22,30.16,30.11,10,9,5,14,8,18,0.00,8,,103